Regional Weather Roundup
Issued by NWS Little Rock, AR

Home | Current Version | Previous Version | Text Only | Print | Product List | Glossary Off
Versions: 1 2 3 4 5 6 7 8 9 10 11 12 13 14 15 16 17 18 19 20 21 22 23 24 25 26 27 28 29 30 31 32 33 34 35 36 37 38 39 40 41 42 43 44 45 46 47 48 49 50

000
ASUS44 KLZK 281305
RWRLZK

WEATHER ROUNDUP FOR ARKANSAS
NATIONAL WEATHER SERVICE LITTLE ROCK AR
800 AM CDT TUE JUL 28 2015

NOTE: "FAIR" INDICATES FEW OR NO CLOUDS BELOW 12,000 FEET WITH NO
SIGNIFICANT WEATHER AND/OR OBSTRUCTIONS TO VISIBILITY.

ARZ001-003-010-029-281400-
NORTHWEST ARKANSAS

CITY           SKY/WX    TMP DP  RH WIND       PRES   REMARKS
FAYETTEVILLE   SUNNY     77  72  84 CALM      30.00R
FORT SMITH     SUNNY     80  73  79 NE5       29.96R
HARRISON       SUNNY     80  72  76 S5        30.01S
BENTONVILLE    SUNNY     81  70  69 S5        30.00R
ROGERS         SUNNY     80  71  74 S7        30.01R
SILOAM SPGS    SUNNY     81  66  61 S9        29.98R
HIGHFILL       SUNNY     79  73  82 S5        30.00R
SPRINGDALE     SUNNY     81  72  74 S6        30.02R
$$

ARZ004-005-016-281400-
NORTH CENTRAL ARKANSAS

CITY           SKY/WX    TMP DP  RH WIND       PRES   REMARKS
BATESVILLE     SUNNY     81  75  83 CALM      29.98R HX  86
FLIPPIN        SUNNY     75  72  88 CALM      29.97S
MTN HOME       SUNNY     79  74  84 CALM      29.99R
$$

ARZ040-041-281400-
WEST CENTRAL ARKANSAS

CITY           SKY/WX    TMP DP  RH WIND       PRES   REMARKS
MENA           SUNNY     79  73  83 CALM      30.01R
MOUNT IDA      SUNNY     77  73  87 CALM      29.97R
$$

ARZ009-017-025-026-028-281400-
NORTHEAST ARKANSAS

CITY           SKY/WX    TMP DP  RH WIND       PRES   REMARKS
JONESBORO      SUNNY     82  78  88 SW3       29.97S HX  91
NEWPORT        SUNNY     83  78  84 S5        29.99R HX  93
WALNUT RIDGE   SUNNY     81  75  83 S5        29.97S HX  86
BLYTHEVILLE    SUNNY     83  80  91 S6        29.98R HX  95
$$

ARZ022-023-033-042-044-281400-
CENTRAL ARKANSAS

CITY           SKY/WX    TMP DP  RH WIND       PRES   REMARKS
LITTLE ROCK    SUNNY     83  75  77 SW6       29.98R HX  90
N LITTLE ROCK    N/A     83  77  81 SW6       29.98R HX  93
JACKSONVILLE   SUNNY     82  76  80 MISG      29.97R HAZE    HX  89
SEARCY         SUNNY     82  77  84 CALM      29.99R HX  90
HOT SPRINGS    SUNNY     82  74  76 CALM      29.99R HX  88
RUSSELLVILLE   SUNNY     81  76  84 CALM      29.97R HX  87
CLINTON        FAIR      77  75  94 CALM      30.01R
$$

ARZ036-281400-
EAST ARKANSAS

CITY           SKY/WX    TMP DP  RH WIND       PRES   REMARKS
WEST MEMPHIS   SUNNY     82  80  94 S7        29.98R HX  94
$$

ARZ050-053-066-070-073-281400-
SOUTHWEST ARKANSAS

CITY           SKY/WX    TMP DP  RH WIND       PRES   REMARKS
ARKADELPHIA    FAIR      81  80  96 CALM      29.99R FOG     HX  91
CAMDEN         SUNNY     81  73  78 S3        29.98R HX  85
TEXARKANA      SUNNY     82  74  76 SW6       29.98R HX  88
EL DORADO      SUNNY     80  75  84 S5        30.00R HX  85
DE QUEEN       SUNNY     79  76  90 CALM      29.96R FOG
$$

ARZ056-057-069-281400-
SOUTHEAST ARKANSAS

CITY           SKY/WX    TMP DP  RH WIND       PRES   REMARKS
PINE BLUFF     SUNNY     81  75  82 S5        29.99R HX  87
STUTTGART      SUNNY     82  73  74 S7        29.98R HX  88
MONTICELLO     SUNNY     84  76  76 W3        29.99R HX  93

$$





USA.gov is the U.S. government's official web portal to all federal, state and local government web resources and services.